Location: Bakhuizen
(52.8696°N, 5.4575°E)
Time: 20:05:54
(UTC+00:00)

Cosmos 1867 - Pass Details

Date: 11 May 2021
Orbit: 773 x 802 km, 65.0° (Epoch: 21 June)

Event Time Altitude Azimuth Distance (km) Brightness Sun altitude
Exits shadow 23:25:59 36° 171° (S) 1,244 4.0 -19.0°
Maximum altitude 23:27:42 49° 123° (ESE) 1,027 3.9 -19.0°
Drops below altitude 10° 23:32:58 10° 50° (NE) 2,383 6.6 -19.0°
Sets 23:35:28 0° 45° (NE) 3,320 7.5 -19.0°
